Location: Area 52 Observatory
(34.2620°N, 119.2590°W)
Time: 00:41:50
(UTC-07:00)

N. Korean satellite - Visible Passes

Search period start: 19 October 2019 00:00
Search period end: 29 October 2019 00:00
Orbit: 455 x 508 km, 97.2° (Epoch: 18 October)

Date Brightness Start Highest point End Pass type
(mag) Time Alt. Az. Time Alt. Az. Time Alt. Az.
19 Oct 9.4 06:09:26 10° NE 06:12:23 23° E 06:15:22 10° SSE visible
20 Oct 10.5 05:46:01 10° ENE 05:46:59 11° E 05:47:56 10° ESE visible
21 Oct 9.9 18:57:53 10° SW 19:00:15 18° W 19:02:38 10° NW visible
22 Oct 8.2 06:26:28 10° NNE 06:29:55 41° E 06:33:25 10° S visible
22 Oct 8.1 18:31:38 10° S 18:34:51 40° W 18:38:07 10° NNW visible
23 Oct 9.8 06:01:54 10° NE 06:04:33 19° E 06:07:13 10° SE visible
25 Oct 6.9 06:43:43 10° NNE 06:47:24 76° E 06:51:06 10° S visible
25 Oct 9.4 18:49:36 10° SSW 18:52:20 22° W 18:55:07 10° NW visible
26 Oct 8.7 06:18:44 10° NNE 06:22:04 32° E 06:25:25 10° SSE visible
27 Oct 10.1 05:54:27 10° ENE 05:56:39 15° E 05:58:52 10° SE visible
28 Oct 10.1 19:08:10 10° WSW 19:09:51 13° W 19:11:32 10° WNW visible
